Find Starlink 4783

NORAD ID: 53835 Int'l Des: 2022-114 Owner: SPXS Country: US Constellation: starlink operational
LEOCIRCULAR

当前视图

正在加载3D地球...

About Starlink 4783

Starlink 4783 (NORAD 53835) is a starlink constellation satellite (v1.5) launched Sep 19, 2022 by SPXS of US. It operates in LEO, CIRCULAR orbit with a mass of 305.00 kg.

即将过境

Passes for default location (London). Set your location on the main map for personalized predictions.

高度历史

Loading altitude history...

两行轨道根数

1 53835U 22114T 26262.43696785 -.00000954 00000-0 -41841-4 0 9992
2 53835 53.1618 153.4820 0001263 93.8078 266.3058 15.08828860222080
Epoch: Sep 19, 2026 • Age: 40 hours

当前状态

高度 545.5 km
远地点 / 近地点 N/A
速度 7.60 km/s
星下点 53.09°N, 170.37°W
发射日期 Sep 19, 2022
运行时间 4 years
类型 internet

技术详情

分类 Payload
质量 305.00 kg
干质量 290.00 kg
长度 0.20 m
跨度 9.00 m
形状 ? Box + pan
制造商 SPXS
平台类型 Starlink
阶段状态 In Orbit
所有者/国家 SPXS/US

Most Searched